Regional Weather Roundup
Issued by NWS

Home | Current Version | Previous Version | Graphics & Text | Print | Product List | Glossary On
Versions: 1 2 3 4 5 6 7 8 9 10 11 12 13 14 15 16 17 18 19 20 21 22 23 24 25 26 27 28 29 30 31 32 33 34 35 36 37 38 39 40 41 42 43 44 45 46 47 48 49 50
000
ASUS45 KTFX 212319
RWRMT
MONTANA HOURLY WEATHER ROUNDUP
NATIONAL WEATHER SERVICE GREAT FALLS MT
419 PM MST FRI NOV 21 2014

NOTE: "FAIR" INDICATES FEW OR NO CLOUDS BELOW 12000 FEET WITH NO
SIGNIFICANT WEATHER AND/OR OBSTRUCTIONS TO VISIBILITY.

* THESE STATIONS ARE NOT UNDER NWS QUALITY CONTROL. THEY DO NOT
   REPORT WEATHER SUCH AS PRECIPITATION OR FOG.

MTZ001>007-043-220000-
WEST OF THE DIVIDE
CITY           SKY/WX    TMP DP  RH WIND       PRES   REMARKS
KALISPELL      FOG       34  30  85 CALM      29.77F
MISSOULA       CLOUDY    34  28  79 CALM      29.81F
BUTTE          CLOUDY    39  25  57 SE3       29.82F
MULLAN PASS    FOG       32  28  85 VRB3      29.72F VSB M1/4
* ESSEX        N/A       34  33  96 N/A        N/A
* EUREKA APT   CLOUDY    39  32  76 S7        29.72F WCI  34
* HAMILTON APT PTCLDY    43  28  56 SW8       29.77F
* LIBBY APT    CLOUDY    32  30  92 CALM      29.76F
* LINCOLN      N/A       40  28  62 W4         N/A
* LOOKOUT PASS N/A       35  33  92 SE4        N/A
* POLSON       N/A       37  31  79 SE1        N/A
* RONAN APT    CLOUDY    34  30  85 N/A        N/A
* SEELEY LAKE  N/A       37  31  79 N2         N/A
* THOMP F APT  CLOUDY    36  25  64 S9G15      N/A   WCI  29
* YAAK HILL    N/A       33  30  89 SE1        N/A
$$

MTZ008-052>055-220000-
SOUTHWEST MONTANA
CITY           SKY/WX    TMP DP  RH WIND       PRES   REMARKS
BOZEMAN        PTCLDY    39  27  62 CALM      29.83F
DILLON         CLOUDY    39  28  65 SW7       29.83F WCI  34
* W YELLOWSTON PTCLDY    34  26  73 SW3G9      N/A
* ENNIS APT    PTCLDY    39  27  62 SE16       N/A   WCI  30
* THREE FORKS  PTCLDY    43  34  71 N/A        N/A
* BOULDER HILL N/A       39  21  48 SW8        N/A   WCI  33
* MONIDA PASS  N/A       30  26  85 SE14       N/A   WCI  19
* RAYNOLDS PAS N/A       34  18  52 SE12G17    N/A   WCI  25
* WHITEHALL    N/A       44  23  43 SW14G21    N/A
* WISE RIVER   N/A       39  23  53 NW6G13     N/A   WCI  35
$$

MTZ009>010-012-014-046-048-049-054-220000-
EAST SLOPES AND CENTRAL MONTANA
CITY           SKY/WX    TMP DP  RH WIND       PRES   REMARKS
CUT BANK       PTCLDY    39  28  65 W15       29.67S WCI  31
GREAT FALLS    CLOUDY    45  28  51 SW16G29   29.72F
HELENA         CLOUDY    45  28  51 CALM      29.79F
MALMSTROM AFB  CLOUDY    43  28  56 SW13      29.74F
* CONRAD       PTSUNNY   43  32  65 CALM       N/A
* DEARBORN     N/A       48  26  42 S9G16      N/A
* EAST GLACIER N/A       38  27  65 W14        N/A   WCI  30
* MONARCH      N/A       39  19  45 SW17G22    N/A   WCI  30
* PENDROY      N/A       41  26  55 W16G21     N/A
* ROGERS PASS  N/A       36  25  64 E4G14      N/A
* SAINT MARY   N/A       39  28  65 S8G20      N/A   WCI  33
* SWEET GRASS  N/A       43  30  60 SW18       N/A
* WHITE SULPH  N/A       41  23  49 S11        N/A
$$

MTZ011-013-016-021-035-040-045-047-050-051-220000-
NORTH CENTRAL MONTANA
CITY           SKY/WX    TMP DP  RH WIND       PRES   REMARKS
HAVRE          PTSUNNY   45  36  71 SW15      29.67R
LEWISTOWN      SUNNY     43  27  53 W13       29.74S
* N BAR RANCH  SUNNY     46  19  34 W6        29.74F
* CHINOOK      PTSUNNY   46  30  54 W12       29.66S
* FORT BENTON  PTSUNNY   46  28  50 SW9G16    29.72S
* MALTA APT    PTCLDY    41  28  60 N/A        N/A
* CHESTER      N/A       42  30  63 W9         N/A
* DENTON       N/A       44  25  47 W7         N/A
* GEYSER       N/A       43  20  40 W24G29     N/A
* JUDITH GAP   N/A       45  22  40 SW12G20    N/A
* LOMA         N/A       46  31  56 SW10G17    N/A
$$

MTZ017>020-022>027-061-062-220000-
NORTHEAST MONTANA
CITY           SKY/WX    TMP DP  RH WIND       PRES   REMARKS
GLASGOW        SUNNY     39  30  70 W10       29.68R WCI  32
GLENDIVE       PTCLDY    37  28  70 SW12      29.74R WCI  29
JORDAN         SUNNY     43  30  60 SW6       29.72S
SIDNEY         SUNNY     39  28  65 SW8       29.71R WCI  33
WOLF POINT     SUNNY     43  32  65 W10       29.68S
* BEAVER HILL  N/A       39  28  65 SW14       N/A   WCI  31
* CIRCLE       N/A       43  33  68 N/A        N/A
* LINDSAY DVD  N/A       41  29  62 SW13G18    N/A
* NAVAJO       N/A       40  30  68 SW15G21    N/A   WCI  32
* PLENTYWOOD A PTCLDY    39  30  70 SW9       29.62S WCI  33
* POPLAR APT   PTCLDY    41  30  65 N/A       29.68S
* SACO         N/A       41  31  68 SW9        N/A
* SCOBEY APT   SUNNY     39  25  57 N/A        N/A
$$

MTZ028>042-056>058-220000-
SOUTHCENTRAL AND SOUTHEAST MONTANA
CITY           SKY/WX    TMP DP  RH WIND       PRES   REMARKS
BAKER          CLOUDY    39  28  65 W5        29.76S WCI  35
BILLINGS       PTCLDY    43  25  49 SW16      29.80S
LIVINGSTON     PTSUNNY   46  25  44 W12       29.80S
MILES CITY     PTCLDY    45  30  56 SW10      29.75S
* BIG TIMBER A PTCLDY    46  21  37 SW26G33   29.76F
* FORSYTH APT  PTCLDY    52  27  38 S5        29.76S
* LAUREL APT   SUNNY     43  23  45 S8         N/A
* ALZADA       N/A       46  27  48 SW6        N/A
* HYSHAM       N/A       48  20  33 W4G9       N/A
* LAME DEER    N/A       44  24  45 W9G14      N/A
* REED POINT   N/A       51  22  32 W11G16     N/A
* ROSCOE HILL  N/A       41  14  33 SE10       N/A
$$

REGIONAL REPORTS...DAKOTAS
CITY           SKY/WX    TMP DP  RH WIND       PRES   REMARKS
WILLISTON      SUNNY     43  30  60 W14       29.66R
DICKINSON      PTCLDY    37  28  70 W9        29.70R WCI  30
BEACH          SUNNY     39  28  65 W12       29.73S WCI  32
CROSBY         SUNNY     39  34  82 W12       29.60S WCI  32
TIOGA          SUNNY     39  36  89 W13       29.65R WCI  31
BISMARCK       PTCLDY    43  30  60 SW9       29.71S
GRAND FORKS    PTCLDY    32  23  69 S18G28    29.63F WCI  21
FARGO          CLOUDY    34  25  70 S16       29.74F WCI  24
BUFFALO SD     SUNNY     46  27  48 W6        29.72S
RAPID CITY     SUNNY     43  30  60 CALM      29.84R
$$

REGIONAL REPORTS...WYOMING/IDAHO/WASHINGTON
CITY           SKY/WX    TMP DP  RH WIND       PRES   REMARKS
GILLETTE       PTCLDY    41  27  58 S3        29.83S
SHERIDAN       PTCLDY    43  28  56 CALM      29.82R
CODY           PTSUNNY   43  25  49 SW6       29.84S
YELLOWSTONE LA PTCLDY    30  21  69 W8G18     29.95F WCI  22
SALMON         PTCLDY    28  21  75 CALM      29.89F
MULLAN PASS    FOG       32  28  85 VRB3      29.72S VSB M1/4
SAND POINT     LGT RAIN  34  34 100 CALM      29.76F VSB 1/2
SPOKANE        LGT RAIN  39  36  89 SE6       29.72F WCI  35
$$

REGIONAL REPORTS...ALBERTA
CITY           SKY/WX    TMP DP  RH WIND       PRES   REMARKS
CALGARY        PTCLDY    45  23  42 SW5       29.52F
LETHBRIDGE     SUNNY     45  28  51 W25G33    29.59F
MEDICINE HAT   SUNNY     41  34  76 S12       29.58F
EDMONTON       PTCLDY    36  32  85 E7        29.49F WCI  30
WATERTON GATE  N/A       37  34  89 SW24G32    N/A   WCI  26
CARDSTON       N/A       43  30  60 W10        N/A
MILK RIVER     N/A       41  30  65 W14G20     N/A
$$

REGIONAL REPORTS...SASKATCHEWAN
CITY           SKY/WX    TMP DP  RH WIND       PRES   REMARKS
SWIFT CURRENT  SUNNY     37  30  76 W12       29.57R WCI  29
MOOSE JAW      PTSUNNY   41  34  76 W13       29.57R
REGINA         PTSUNNY   41  34  76 W13       29.55R
VAL MARIE      N/A       37  34  89 W12        N/A   WCI  29
ASSINIBOIA     N/A       36  28  73 SW12       N/A   WCI  28

$$




USA.gov is the U.S. government's official web portal to all federal, state and local government web resources and services.